www.pogodaiklimat.ru

Погода и климат >> Архив погоды >> Россия >> Красноярский край >> Верхнеимбатск


АРХИВ ПОГОДЫ в Верхнеимбатске

Время (UTC), дата Ветер
(напр.,м/с)
 
Видим.   Явления Облачность Т
(С)
Тd
(С)
f
(%)
Тe
(С)
Тes
(С)
Комфортность P
(гПа)
Po
(гПа)
Тmin
(С)
Tmax
(С)
R
(мм)
R24
(мм)
S
(см)
21 9.01 З 1 н/о слаб. снег {метель} 10/0
[As op]
-19.4 -22.0 80 -22 -22 997.5 991.7
00 10.01 З 3 н/о слаб. снег {метель} 10/0
[As op]
-22.8 -26.1 74 -31 -31 опасность
обморожения
1001.5 995.2 -22.8 1 63
03 10.01 ЮЗ 2 н/о {снег, метель} ясно -26.0 -29.1 75 -33 -33 опасность
обморожения
1004.5 998.2 -26.5
06 10.01 ЮЗ 2 20 км {снег, метель} 8/0
[Ac trans]
-27.5 -30.7 74 -35 -34 опасность
обморожения
1007.5 1001.1
09 10.01 ЮЗ 2 20 км 8/0
[As op]
-28.3 -31.3 75 -36 -36 опасность
обморожения
1010.1 1003.7
12 10.01 Ю 1 н/о ясно -29.6 -32.0 80 -34 -34 опасность
обморожения
1012.4 1005.9 -22.8 0.2
15 10.01 З 2 н/о ясно -31.8 -34.8 75 -40 -40 опасность
обморожения
1014.7 1008.2
18 10.01 ЮЗ 1 н/о ясно -32.8 -35.8 74 -37 -37 опасность
обморожения
1017.2 1010.6
21 10.01 ЮВ 1 н/о 8/0
[As trans]
-32.7 -35.8 74 -37 -37 опасность
обморожения
1019.1 1012.5
00 11.01 ЮВ 2 н/о {снег} 3/0
[As trans]
-33.5 -36.6 73 -42 -42 опасность
обморожения
1019.8 1013.2 -33.5 0.0 63
03 11.01 ЮВ 2 н/о 8/0
[Ci sp]
-33.9 -36.8 75 -42 -42 опасность
обморожения
1020.8 1014.2 -34.0
06 11.01 В 2 20 км 3/0
[Ci fib]
-35.2 -38.0 75 -44 -43 опасность
обморожения
1021.0 1014.4
09 11.01 В 1 20 км 6/0
[Ac trans Ci fib]
-34.5 -37.4 75 -39 -39 опасность
обморожения
1021.1 1014.5
12 11.01 В 1 н/о ясно -35.7 -38.7 74 -40 -40 опасность
обморожения
1021.2 1014.6 -33.5
15 11.01 В 1 н/о ясно -38.0 -40.9 74 -43 -43 опасность
обморожения
1021.5 1014.8
18 11.01 В 1 н/о ясно -40.4 -43.3 73 -46 -46 опасность
обморожения
1022.2 1015.4
21 11.01 В 1 н/о ясно -41.5 -45.0 69 -47 -47 опасность
обморожения
1022.9 1016.1
00 12.01 В 1 н/о ясно -40.4 -43.3 73 -46 -46 опасность
обморожения
1023.5 1016.7 -42.0 63
03 12.01 В 1 н/о ясно -39.3 -42.3 73 -44 -44 опасность
обморожения
1025.2 1018.4
06 12.01 штиль 0 20 км ясно -39.0 -41.8 75 -39 -39 опасность
обморожения
1026.5 1019.7
09 12.01 штиль 0 20 км ясно -38.6 -41.4 75 -39 -39 опасность
обморожения
1028.3 1021.5
12 12.01 В 1 н/о ясно -41.2 -44.4 71 -47 -47 опасность
обморожения
1030.0 1023.2 -38.6
15 12.01 В 1 н/о ясно -43.2 -46.2 72 -49 -49 опасность
обморожения
1032.6 1025.6
18 12.01 В 1 н/о ясно -41.4 -45.0 68 -47 -47 опасность
обморожения
1034.6 1027.7
21 12.01 В 1 н/о ясно -41.2 -44.4 71 -47 -47 опасность
обморожения
1036.0 1029.1
00 13.01 В 2 н/о ясно -39.2 -42.5 71 -48 -48 опасность
обморожения
1036.5 1029.6 -43.2 63
03 13.01 В 2 н/о 3/0
[Ci fib]
-36.7 -39.4 76 -45 -45 опасность
обморожения
1036.2 1029.5
06 13.01 В 3 20 км 3/0
[As op Ci fib]
-33.7 -36.6 75 -44 -44 опасность
обморожения
1035.2 1028.5
09 13.01 В 4 20 км позёмок 4/0
[Cc]
-30.5 -33.6 74 -42 -42 опасность
обморожения
1033.1 1026.5
12 13.01 В 5-10
{10}
н/о позёмок 8/0
[Ac As]
-27.3 -30.5 74 -39 -39 опасность
обморожения
1030.7 1024.3 -27.3
15 13.01 В 6-12
{14}
н/о слаб. снег {метель} 10/0
[Ac As]
-24.2 -27.4 75 -36 -36 опасность
обморожения
1024.4 1018.0
18 13.01 В 4-10
{14}
н/о снег {метель} 10/0
[Ac As]
-22.8 -26.1 74 -32 -32 опасность
обморожения
1023.3 1016.9
21 13.01 В 4-10
{10}
н/о слаб. снег {метель} 10/0
[Ac As]
-20.8 -23.3 80 -30 -30 1021.1 1014.9
00 14.01 В 4
{11}
н/о слаб. снег {метель} 10/0
[Ac As]
-19.2 -21.8 80 -28 -28 1019.6 1013.4 -27.3 6 69
03 14.01 В 2 н/о {снег, метель} 10/0
[Ac As]
-17.6 -20.2 80 -23 -23 1018.3 1012.1
06 14.01 В 2 4000 м слаб. ливневой снег {метель} 10/10 600 м
[Cb cap]
-15.0 -17.7 80 -20 -20 1018.4 1012.3
09 14.01 В 2 4000 м слаб. ливневой снег 10/10 600 м
[Cb cap]
-12.6 -14.6 85 -17 -17 1018.8 1012.8
12 14.01 ЮВ 3 н/о слаб. ливневой снег 10/10 600 м
[Cb cap]
-11.3 -13.3 85 -17 -17 1019.0 1013.0 -11.0 2
15 14.01 ЮВ 3 н/о {ливн. осадки} 10/10 600 м
[Sc]
-10.3 -12.3 85 -16 -16 1018.6 1012.6
18 14.01 В 3 н/о {ливн. осадки} 10/10 600 м
[Sc]
-10.2 -12.2 85 -16 -16 1017.5 1011.5
21 14.01 В 4 н/о 10/10 600 м
[Sc]
-8.9 -10.9 85 -16 -16 1016.2 1010.2
00 15.01 В 4 н/о 10/10 600 м
[Sc]
-9.2 -11.3 85 -16 -16 1014.0 1008.0 -11.3 0.0 70
03 15.01 В 4
{11}
н/о 10/10 600 м
[Cb cap]
-10.4 -13.2 80 -17 -17 1010.7 1004.8
06 15.01 В 4
{11}
20 км позёмок 10/0
[As trans]
-10.6 -13.4 80 -18 -17 1008.8 1002.9
09 15.01 В 4
{10}
20 км позёмок 10/0
[As trans Ci sp]
-10.5 -14.1 75 -17 -17 1006.5 1000.6
12 15.01 ЮВ 4 н/о позёмок 10/0
[As op]
-10.0 -13.6 75 -17 -17 1006.0 1000.1 -9.2
15 15.01 ЮВ 3 н/о слаб. ливневой снег {метель} 10/10 600 м
[Cb cap]
-10.0 -12.0 85 -16 -16 1006.1 1000.2
18 15.01 ЮВ 2 н/о {ливн. осадки, метель} ясно -12.0 -14.0 85 -17 -17 1006.9 1001.0
21 15.01 ЮВ 1 н/о слаб. ливневой снег 10/10 600 м
[Cb cap]
-12.3 -14.3 85 -15 -15 1008.4 1002.5
00 16.01 Ю 1 н/о {ливн. осадки} 10/10 600 м
[Cb cap]
-13.8 -15.8 85 -16 -16 1010.8 1004.8 -13.8 1 72
03 16.01 ЮВ 2 н/о 6/0
[Ac As]
-16.2 -18.1 85 -21 -21 1012.3 1006.2 -16.9
06 16.01 ЮВ 2 20 км 10/0
[As trans]
-16.2 -18.1 85 -21 -21 1013.8 1007.7
09 16.01 ЮВ 2 20 км 10/0
[Ac As]
-15.6 -17.5 85 -21 -21 1014.3 1008.2
12 16.01 ЮВ 2 н/о 10/0
[As trans]
-15.0 -17.0 85 -20 -20 1014.9 1008.8 -15.0
15 16.01 ЮВ 3 н/о слаб. снег 10/0
[As op]
-14.2 -16.2 85 -21 -21 1014.2 1008.1
18 16.01 ЮВ 2 н/о слаб. снег 10/0
[As trans]
-13.8 -15.8 85 -19 -19 1014.0 1007.9

 

Местоположение метеостанции Верхнеимбатск (Красноярский край, Россия): широта 63.15 долгота 87.95 высота над уровнем моря 45 м.

В архиве по умолчанию представлена погода в Верхнеимбатске за последнюю неделю. Архивные данные за месяц целиком и за предыдущие месяцы, начиная с января 2011 года, Вы можете получить, выбрав интересующий диапазон дат из раскрывающегося списка и нажав кнопку "Ввод!".


*Определитесь, кто Вы:
робот инопланетянин человек

Внимание! Время в таблицах - всемирное. Для получения местного времени необходимо прибавить поправку, которая равна 7 ч.

Смотрите также архив погоды в соседних городах и на ближайших метеорологических станциях:

Погода в Бахте (Красноярский край, Россия) (93 км)
Погода в Келлоге (Красноярский край, Россия) (113 км)
Погода в Верещагино (Красноярский край, Россия) (122 км)
Погода в Бору (Красноярский край, Россия) (203 км)
Погода в Кузьмовке (Эвенкия, Россия) (232 км)
Погода в Ворогово (Красноярский край, Россия) (251 км)
Погода в Туруханске (Красноярский край, Россия) (293 км)
Погода в Большом Пороге (Эвенкия, Россия) (294 км)
Погода в Тольке (Ямало-Ненецкий АО, Россия) (305 км)
Погода в Тутончанах (Эвенкия, Россия) (310 км)

Пояснения к столбцам:

Ветер - указаны скорость ветра в м/с - средняя за 10 мин, порывы в срок и между сроками (в фигурных скобках) и направление, откуда дует ветер: С - северный, СВ - северо-восточный, В - восточный, ЮВ - юго-восточный, Ю - южный, ЮЗ - юго-западный, З - западный, СЗ - северо-западный.
Видимость - горизонтальная дальность видимости в метрах или километрах. При видимости от 1 до 10 км при отсутствии осадков обычно наблюдается дымка, при ухудшении видимости до 1 км и менее - туман. В сухую погоду видимость может ухудшаться дымом, пылью или мглою.
Явления - указаны атмосферные явления, наблюдавшиеся в срок или в последний час перед сроком; фигурными скобками обозначены явления, наблюдавшиеся между сроками (за 1-3 часа до срока); квадратными скобками обозначены град или гололедные отложения с указанием их диаметра в мм.
Облачность - указаны через наклонную черту общая и нижняя облачность в баллах и высота нижней границы облаков в метрах; квадратными скобками обозначены формы облаков: Ci - перистые, Cs - перисто-слоистые, Cc - перисто-кучевые, Ac - высококучевые, As - высокослоистые, Sc - слоисто-кучевые, Ns - слоисто-дождевые, Cu - кучевые, Cb - кучево-дождевые. Подробнее классификацию облаков см. в Атласе облаков (PDF).
T - Температура воздуха - температура, измеренная на высоте 2 м над землей.
Td - Температура точки росы - температура, при понижении до которой содержащийся в воздухе водяной пар достигнет насыщения.
f - Относительная влажность воздуха - влажноcть воздуха, измеренная на высоте 2 м над землей.
Te - Эффективная температура - температура, которую ощущает одетый по сезону человек в тени. Характеристика душности погоды. При расчете учитывается влияние влажности воздуха и скорости ветра на теплоощущения человека.
Tes - Эффективная температура на солнце - температура, которую ощущает человек, с поправкой на солнечный нагрев. Характеристика знойности погоды. Зависит от высоты солнца над горизонтом, облачности и скорости ветра. Ночью, в пасмурную погоду, а также при ветре 12 м/с и более поправка равна нулю.
P - Атмосферное давление - приведенное к уровню моря атмосферное давление.
Po - Атмосферное давление - измеренное на уровне метеостанции атмосферное давление.
Tmin - Минимальная температура - минимум температуры воздуха на высоте 2 м над землей.
Tmax - Максимальная температура - максимум температуры воздуха на высоте 2 м над землей.
R - Количество осадков - Количество выпавших осадков за период времени, мм. При наведении курсора мыши на число - период времени, за который выпало указанное количество осадков.
R24 - Количество осадков - Количество выпавших осадков за 24 часа, мм.
S - Снежный покров - Высота снежного покрова, см. При наведении курсора мыши на число - состояние снежного покрова и степень покрытия местности в баллах.